Location: Newark
(44.3681°N, 100.3364°W)
Time: 22:21:30
(UTC+00:00)

Vanguard 1 - Pass Details

Date: 28 February 2020
Orbit: 649 x 3833 km, 34.2° (Epoch: 05 April)

Event Time Altitude Azimuth Distance (km) Brightness Sun altitude
Rises 12:05:20 0° 220° (SW) 7,470 14.2 -14.3°
Reaches altitude 10° 12:10:30 10° 214° (SW) 6,688 14.0 -13.4°
Maximum altitude 12:31:20 44° 151° (SSE) 4,592 13.7 -9.7°
Drops below altitude 10° 12:49:10 10° 88° (E) 5,838 15.8 -6.5°
Sets 12:53:13 0° 83° (E) 6,498 16.3 -5.7°
